Wind_Speed
18 18 19 20 19 19 21 21 21 23 22 21 20 20 20 19 17 17 16 16 16 14 14 13 12 12 13 13 13 13 13 13 14 14 13 12 12 11 10 10 10 11 11 12 12 12 14 16 16 14 13 11 12 13 14 15 17 19 20 20 20 19 19 18 16 14 13 12 11 10 9 7 5 4 5 4 4 5 7 8 12 15 12 10 12
21 22 21 22 22 21 21 20 21 21 20 19 19 18 19 20 18 17 17 16 16 15 15 14 13 12 12 13 13 13 13 13 15 15 14 13 13 12 11 10 10 10 11 12 12 13 15 16 14 14 13 11 12 13 13 14 15 17 18 18 18 18 18 16 14 13 12 11 9 8 7 6 3 4 6 3 2 5 7 7 12 16 12 10 12
25 25 25 24 24 24 23 22 20 19 19 19 19 18 18 19 18 17 17 18 17 16 15 15 14 13 12 12 13 13 14 14 15 15 15 14 14 13 11 11 10 10 11 12 12 13 14 13 13 13 13 12 11 11 11 11 12 13 15 16 15 15 15 14 12 11 11 10 8 6 6 4 4 4 5 2 1 5 7 5 8 10 9 9 11
27 27 27 27 26 27 26 25 23 21 21 20 20 19 18 19 20 18 18 18 18 17 16 15 15 15 13 14 15 15 14 15 15 15 15 14 14 13 12 11 11 10 11 11 11 13 12 12 12 13 12 10 8 7 8 9 9 11 12 13 13 13 14 12 11 10 10 10 7 6 5 3 2 2 1 1 1 5 7 5 6 5 7 10 11
28 28 29 28 28 30 29 27 26 25 24 23 22 21 19 19 20 20 19 19 19 18 17 16 17 16 15 16 16 15 15 15 15 14 15 15 14 13 12 11 11 11 11 10 10 11 11 11 10 9 8 6 4 5 6 7 8 9 10 11 12 12 13 13 12 10 9 9 7 5 5 2 1 3 4 4 2 5 9 9 7 4 6 10 10
26 28 29 28 28 30 31 30 29 29 28 26 25 23 22 21 21 21 21 20 19 19 18 18 18 17 16 17 15 14 16 16 15 14 15 16 14 12 11 10 10 11 10 9 9 11 11 9 6 4 3 2 3 4 5 7 9 10 10 11 11 11 11 11 12 10 8 8 7 4 5 4 4 6 7 6 6 7 9 9 8 7 5 8 9
25 26 29 29 28 28 30 31 31 31 30 29 27 26 24 23 23 22 21 21 20 20 20 20 19 18 16 16 15 15 17 17 15 15 15 15 15 12 10 9 9 10 10 11 11 11 9 6 4 2 0 2 4 5 7 9 10 11 12 11 11 11 10 10 10 10 8 7 6 5 5 5 5 7 8 9 8 8 8 7 7 6 6 7 8
28 27 28 30 30 29 28 30 29 30 30 30 29 28 26 25 24 23 22 22 21 21 21 21 20 18 17 15 16 17 17 17 17 17 16 16 15 12 11 11 11 11 12 12 10 9 7 5 4 2 1 1 3 5 7 9 11 12 12 12 12 12 12 11 11 10 9 8 7 5 4 5 5 6 8 10 10 9 7 5 7 5 6 12 13
27 28 29 29 29 29 28 28 28 30 30 30 29 27 26 25 24 24 23 22 22 22 21 21 20 19 17 16 18 19 19 18 18 18 17 16 15 14 13 13 12 12 13 11 9 8 7 6 4 3 2 2 3 5 7 8 10 11 12 12 12 12 13 13 13 12 11 9 7 6 5 5 6 7 8 9 9 9 8 6 4 5 9 15 12
27 29 31 30 27 28 30 30 28 28 30 30 28 27 26 25 25 24 24 23 23 23 21 20 20 19 18 18 20 21 21 20 19 19 17 16 16 16 15 14 13 12 11 11 10 9 8 7 5 4 3 3 5 6 8 9 10 11 12 12 12 12 13 13 14 14 13 12 9 7 7 7 8 10 11 11 8 8 8 7 4 5 12 15 13
29 31 32 31 27 24 26 31 29 25 27 28 28 27 26 26 25 24 24 24 24 23 22 20 19 19 18 19 21 21 21 21 21 20 17 16 16 16 15 14 13 12 12 11 11 9 8 7 7 5 5 5 6 8 9 11 11 11 12 12 13 13 13 13 14 14 14 14 11 9 9 9 9 11 13 13 11 9 9 8 8 10 14 16 17
25 28 30 30 27 21 20 26 27 23 24 26 26 26 26 26 25 25 25 25 25 24 21 20 19 19 18 19 20 20 21 22 21 20 18 16 16 16 14 13 13 13 12 11 11 10 9 9 8 7 7 8 9 10 12 13 13 13 13 13 13 13 13 13 13 14 14 14 14 12 11 11 11 11 11 11 12 12 11 9 11 12 12 13 15
22 26 28 30 27 21 18 21 23 21 20 22 25 24 24 24 24 24 25 26 25 24 21 20 20 19 19 19 19 19 20 21 20 19 18 17 16 15 14 13 13 12 11 11 11 11 11 11 10 9 10 10 11 12 13 15 16 16 16 15 15 14 14 14 14 14 14 15 15 15 14 14 14 13 11 10 10 11 9 9 10 11 10 9 10
22 23 24 27 25 18 17 18 21 21 19 20 23 23 22 22 21 22 25 25 24 24 22 21 20 19 19 20 19 19 19 19 19 18 17 17 16 15 14 14 13 12 12 12 12 12 12 12 12 11 12 12 13 13 14 16 17 18 18 18 18 17 16 16 16 15 15 15 16 16 16 15 14 14 13 11 9 9 8 8 8 8 9 10 11
22 22 19 21 21 17 17 18 20 22 22 20 22 22 21 20 19 19 22 24 23 24 23 22 21 21 20 19 19 18 18 18 18 17 17 17 16 16 15 15 14 14 14 13 13 13 12 13 13 13 13 13 14 15 16 17 18 19 20 21 21 21 22 21 19 17 17 17 16 16 16 15 14 13 13 12 11 10 10 10 9 9 10 11 12
23 22 19 18 20 21 20 20 20 23 25 23 21 23 22 19 16 16 19 21 22 23 23 22 22 22 20 19 19 18 18 18 18 18 18 17 18 17 16 16 16 15 15 14 13 13 13 14 15 15 15 15 16 18 19 19 20 20 19 21 22 23 26 27 24 21 19 18 17 16 15 15 14 12 12 13 12 11 10 10 11 12 11 11 12
22 19 18 17 22 25 24 23 22 24 26 25 23 23 23 19 16 15 18 20 21 24 24 23 24 23 21 19 19 18 18 18 18 18 18 18 19 19 18 18 17 16 15 15 14 15 15 15 16 17 18 18 20 21 22 22 21 20 19 19 20 21 26 29 27 24 22 21 19 18 17 16 15 14 13 13 12 12 11 10 11 12 12 12 12
18 15 18 19 22 27 27 25 24 24 26 26 25 23 23 21 18 17 18 19 21 24 25 24 24 23 21 20 19 18 18 18 18 18 18 19 20 19 19 19 18 16 15 16 16 16 16 17 18 19 20 22 24 24 25 24 24 22 20 19 18 18 21 26 28 28 28 27 25 22 20 18 17 15 13 13 12 11 11 11 11 12 12 13 13
18 17 22 22 22 26 29 27 26 26 25 25 25 23 23 23 21 19 19 19 21 24 25 24 25 24 21 20 19 18 18 18 18 18 19 20 20 20 19 19 18 17 16 16 17 17 18 20 21 22 24 25 27 27 27 27 27 25 24 22 20 20 21 24 27 30 33 34 31 27 23 20 19 17 13 12 11 11 11 12 12 12 12 13 14
26 23 24 26 26 28 31 29 29 29 28 27 26 25 25 24 23 21 20 21 22 25 26 26 26 25 23 21 20 19 19 18 18 18 20 21 20 19 19 18 18 19 18 17 19 20 21 22 24 25 26 28 28 29 29 30 31 29 27 26 25 25 26 26 27 30 34 34 31 26 23 21 20 18 14 11 10 11 12 12 12 12 13 13 14
30 24 21 25 27 28 30 30 32 34 34 32 30 28 27 26 25 23 21 22 23 25 27 27 27 26 24 22 21 20 20 19 19 19 21 22 20 18 19 19 19 19 19 19 20 22 23 24 26 27 29 29 29 29 30 31 32 32 30 29 29 30 31 30 30 32 31 28 25 24 23 21 20 19 16 12 10 11 12 12 13 13 13 14 15
32 23 18 21 25 27 30 30 31 34 35 33 31 30 29 28 28 25 23 23 23 25 27 28 28 27 26 24 23 22 21 20 20 21 22 22 21 19 19 19 19 20 21 21 22 23 24 25 26 28 30 31 30 30 30 31 33 34 33 33 33 33 34 34 33 32 29 24 23 23 23 22 20 19 17 13 12 13 12 13 14 14 14 15 16
31 23 18 19 22 25 27 26 27 31 35 34 31 30 30 29 29 28 25 24 23 24 26 28 29 28 27 26 25 25 23 21 22 24 23 22 21 20 20 21 21 21 22 22 23 25 26 25 25 26 28 30 31 31 31 31 32 34 34 35 35 35 36 35 33 32 29 25 24 24 24 23 21 18 17 15 14 13 13 13 14 15 16 16 17
28 21 19 19 18 20 21 20 19 24 33 35 31 30 30 30 30 29 27 25 24 25 26 27 29 28 27 28 28 27 25 25 26 26 24 22 21 22 22 22 22 21 20 21 22 23 25 25 25 25 26 27 28 30 31 31 31 31 32 33 34 35 34 33 31 29 29 27 26 25 25 24 21 18 17 16 15 14 14 14 15 16 17 16 17
24 18 18 18 15 16 18 16 13 19 31 36 32 30 30 30 31 31 28 26 26 26 27 26 28 29 29 29 28 28 28 28 28 27 25 24 23 23 23 23 23 21 19 19 20 20 21 23 25 26 27 26 27 28 30 30 30 30 30 31 32 32 31 30 28 28 28 27 27 27 26 24 22 20 19 18 17 17 15 15 16 18 18 17 17
20 18 18 17 14 14 17 18 16 19 29 34 31 31 31 30 30 31 30 28 27 27 28 26 26 28 30 30 30 30 30 30 29 27 25 25 24 24 25 24 23 22 20 19 19 19 20 22 24 26 28 28 29 30 30 31 31 31 31 31 31 31 30 28 27 28 28 27 27 27 26 25 24 23 22 21 20 20 18 17 18 19 19 19 20
17 18 20 18 16 16 17 18 17 19 27 31 31 31 32 31 30 30 31 30 28 28 28 25 23 26 28 29 30 31 31 30 28 26 25 25 24 25 25 24 22 21 21 21 20 19 19 21 24 26 28 29 30 31 32 33 33 32 31 31 31 31 30 29 28 28 28 28 27 27 27 27 26 26 25 25 25 24 23 22 21 20 21 23 23
16 17 20 19 16 16 14 14 14 17 22 27 31 34 34 33 31 30 31 31 29 29 29 25 22 24 26 27 28 30 30 29 27 26 25 25 25 25 24 22 21 21 22 23 23 20 19 22 24 26 27 29 31 32 33 34 35 34 34 33 33 33 32 32 31 29 29 30 30 29 29 29 28 28 28 28 28 27 27 27 25 24 25 26 26
24 23 24 21 18 17 14 11 12 15 18 22 28 32 34 35 33 31 32 33 30 29 29 26 24 24 24 24 25 27 28 28 27 26 25 24 25 24 23 22 21 20 21 24 27 24 22 24 26 26 27 29 31 32 33 35 36 36 37 37 37 36 35 34 33 32 32 33 33 32 31 29 28 28 28 29 29 29 30 29 27 27 28 30 29
29 28 30 28 23 21 17 12 10 11 13 19 25 28 31 35 35 33 33 35 32 28 28 28 26 24 23 23 24 25 27 27 27 25 23 23 23 23 23 24 22 21 22 25 28 27 25 26 27 28 29 30 31 33 34 35 36 38 39 39 39 38 36 35 35 35 34 34 35 34 31 29 27 27 28 28 29 29 30 29 28 29 30 30 31
28 28 33 35 28 23 20 15 13 12 12 15 21 26 30 34 36 35 33 36 35 29 28 29 27 23 22 23 24 26 27 28 27 24 23 22 22 23 24 25 24 24 25 27 29 29 28 27 29 30 30 31 32 33 33 34 36 39 40 39 39 39 38 37 37 37 36 36 35 34 32 30 27 26 26 27 29 30 31 30 31 31 31 30 31
22 21 28 33 30 27 23 16 15 17 16 15 18 25 30 32 34 33 32 35 36 32 30 30 27 25 25 25 26 28 29 29 27 25 23 22 22 24 25 26 26 27 28 29 30 30 29 28 29 31 31 32 33 33 33 34 36 39 41 40 40 40 40 39 38 38 37 37 36 35 33 29 26 24 24 26 29 30 30 32 33 33 32 31 33
26 25 26 28 29 29 27 20 17 19 20 17 17 22 29 30 30 31 31 34 37 34 32 30 28 27 27 27 27 29 29 28 27 25 24 23 24 25 27 27 28 29 30 31 31 30 29 29 30 31 31 32 33 33 33 34 36 39 42 42 41 40 41 41 40 39 38 37 37 36 33 28 24 24 26 27 29 29 30 32 33 33 31 32 35
30 30 28 25 26 29 31 27 20 19 21 21 18 21 26 28 29 31 30 31 35 35 33 32 31 30 30 30 30 30 28 26 26 25 25 25 26 27 28 28 30 31 31 31 31 30 29 29 31 30 30 31 33 33 34 34 36 40 42 42 41 41 42 42 42 40 37 37 38 35 29 25 24 25 26 28 29 29 29 30 30 30 31 34 37
32 31 28 25 26 31 34 31 23 19 19 20 20 22 26 29 30 31 30 30 34 36 35 35 36 34 33 34 33 30 27 26 27 27 26 27 28 29 29 29 30 31 31 30 30 28 27 28 30 30 30 31 33 34 34 36 37 40 42 42 41 41 42 42 41 39 37 37 35 29 24 23 25 26 26 28 29 26 23 25 28 30 33 36 38
32 33 31 31 34 36 35 30 26 23 21 19 20 22 27 32 31 30 31 32 35 38 40 40 40 38 36 35 33 31 28 28 28 27 28 29 30 29 28 28 29 29 28 27 26 26 26 27 28 30 30 32 34 36 37 38 39 40 40 40 40 40 40 39 36 35 34 33 27 23 22 22 24 26 27 28 28 23 21 27 33 35 36 37 35
32 33 33 34 37 40 39 35 31 29 26 23 22 23 29 35 34 31 32 35 37 40 43 43 41 38 37 35 34 32 31 30 29 29 30 30 29 28 27 26 25 24 23 23 23 24 26 28 30 31 32 34 36 39 39 39 39 38 37 37 37 38 37 34 31 31 31 27 21 19 21 23 24 26 26 26 25 24 27 33 36 36 35 33 31
37 37 38 38 41 43 45 43 37 33 32 30 27 26 30 35 37 35 35 37 39 41 43 44 41 37 36 35 33 32 31 31 31 31 30 29 27 26 24 21 20 20 19 21 24 27 30 32 32 33 34 35 37 39 40 38 38 37 36 36 36 35 32 29 28 28 26 21 17 17 19 20 21 21 21 22 25 28 32 35 35 33 32 31 30
43 42 41 43 48 48 47 46 43 39 38 37 32 29 30 35 40 40 38 38 40 40 41 41 39 36 35 34 33 31 31 31 32 30 28 27 25 22 19 18 18 18 21 26 31 32 33 33 32 32 33 34 35 37 37 37 36 37 37 36 35 32 29 27 25 22 19 16 14 14 15 16 17 18 20 22 26 30 33 33 32 32 32 32 32
42 41 40 41 45 47 47 49 47 43 39 37 35 31 30 34 41 44 42 40 39 39 38 38 38 36 35 33 32 31 32 32 30 28 27 25 22 19 17 16 18 22 29 34 35 33 31 30 30 31 31 32 33 34 35 35 36 37 37 35 33 29 26 24 20 17 15 15 14 12 12 14 18 21 22 25 28 31 32 32 32 32 32 32 33
37 37 38 40 43 45 48 49 46 41 38 37 36 33 31 32 38 43 44 41 39 38 38 39 39 36 33 32 32 33 32 30 28 26 25 22 20 19 17 18 23 30 35 34 30 27 25 26 28 29 30 31 31 32 33 34 34 34 32 30 26 24 22 20 18 17 15 15 15 13 12 14 19 22 24 27 29 30 31 31 32 32 32 32 33
34 37 39 43 47 48 48 45 40 39 39 39 36 33 31 30 33 38 42 42 41 40 40 40 38 34 33 34 35 34 31 28 26 26 25 23 22 21 19 22 29 33 31 26 23 22 21 23 25 26 27 28 29 30 30 30 29 28 25 23 21 19 18 18 18 17 15 16 16 14 14 17 21 23 25 28 29 30 30 31 31 31 32 32 33
27 35 40 45 48 48 45 42 40 40 40 38 35 32 30 29 31 35 41 43 43 43 41 38 35 35 36 36 35 33 30 28 28 28 27 24 23 22 23 27 29 26 22 20 21 21 21 22 24 24 25 25 26 27 27 26 24 22 20 20 19 17 15 16 16 14 14 15 16 16 18 21 23 25 26 28 28 29 30 30 30 32 33 33 34
25 28 35 40 43 44 44 43 43 41 39 37 35 33 30 29 32 37 41 44 45 43 40 37 37 39 39 36 33 31 29 27 27 26 24 21 21 22 25 24 21 19 19 21 22 22 22 22 23 23 23 24 25 25 24 23 21 19 17 18 17 14 12 12 12 12 12 14 16 18 21 23 25 26 27 28 29 29 29 30 32 33 33 33 34
31 29 34 36 35 38 40 40 39 38 37 37 36 34 32 32 34 38 42 45 45 43 41 41 42 40 37 34 31 28 27 26 24 22 20 18 17 18 20 18 16 17 20 22 23 23 22 22 22 23 23 23 23 22 22 20 19 16 15 15 14 13 12 12 12 12 13 14 17 19 22 24 25 26 27 29 30 30 31 32 32 33 33 33 33
38 37 37 35 32 33 34 35 36 37 38 38 36 34 33 34 36 39 44 46 46 44 43 43 40 36 34 31 28 26 26 25 21 18 17 15 12 14 15 15 15 17 20 21 22 22 21 21 22 23 22 22 21 21 20 19 17 15 14 14 13 12 13 13 14 14 14 16 18 21 23 24 25 26 28 29 30 30 31 32 32 33 33 33 32
39 36 34 30 26 25 27 29 33 35 36 35 34 33 33 35 38 40 44 45 44 42 41 38 35 33 31 27 25 25 25 22 17 15 15 13 13 15 15 15 15 18 20 21 21 21 21 21 22 22 22 21 20 20 20 18 16 14 13 13 12 13 14 15 15 16 16 17 19 21 22 24 25 27 28 29 30 30 31 32 32 33 32 31 29
32 28 24 21 20 21 24 26 29 31 33 32 32 31 30 32 35 36 37 38 37 37 36 34 32 31 28 24 22 22 21 18 16 15 14 13 15 16 15 15 17 19 19 19 19 19 20 20 21 22 23 21 20 19 17 16 14 14 13 14 14 15 16 16 17 17 17 18 20 21 22 23 25 27 28 29 29 30 30 31 31 31 30 28 27
28 26 23 23 24 26 28 29 29 30 31 31 29 27 27 29 32 34 35 35 34 34 33 30 28 26 23 20 18 17 16 16 14 14 14 14 14 15 15 15 17 19 18 18 19 19 19 19 20 21 22 22 20 17 14 13 14 14 15 16 16 15 15 16 17 17 17 18 19 20 22 24 26 27 28 30 31 32 32 32 32 31 30 28 27
25 23 21 23 24 24 26 28 28 27 27 29 30 31 32 33 34 33 32 31 29 27 26 25 23 21 19 16 14 13 14 15 14 13 13 14 15 16 16 15 17 19 18 18 18 18 18 18 19 21 20 19 17 16 15 14 15 16 16 16 15 15 15 16 17 17 17 18 20 22 24 26 27 27 29 31 33 33 33 33 32 31 31 28 27
27 25 23 22 24 27 29 30 31 30 32 33 32 32 32 31 29 27 26 25 24 22 21 19 17 16 14 12 13 14 16 16 15 14 13 15 17 17 16 16 18 19 18 17 17 17 17 18 19 20 19 17 16 16 17 17 17 17 16 15 14 14 15 16 17 18 19 20 22 25 26 27 28 28 29 31 32 32 33 33 32 30 28 26 27
Wind_Direction
211 210 212 215 216 219 223 226 227 228 229 229 228 225 224 226 227 229 233 237 239 243 250 252 256 255 246 242 243 241 239 238 239 240 242 248 254 259 263 270 278 283 284 284 288 294 292 289 289 287 286 289 288 288 292 295 297 297 298 302 306 309 308 306 305 302 299 298 299 302 307 313 308 295 290 247 202 240 251 232 234 246 258 253 234
222 218 215 218 219 220 224 228 231 234 234 233 234 231 229 230 233 236 238 243 247 248 252 255 260 262 248 239 239 239 236 236 237 237 239 244 253 261 264 271 279 284 288 288 290 291 287 284 285 286 286 290 293 293 297 300 300 301 303 307 311 312 311 309 306 302 300 300 304 307 316 333 336 324 325 326 170 237 258 248 239 238 248 261 243
224 225 221 222 225 225 227 230 232 236 237 236 235 234 232 235 240 244 244 247 253 253 253 255 258 259 248 235 236 235 232 234 235 236 239 245 255 262 263 272 280 285 292 293 287 284 282 282 281 280 283 292 296 295 302 307 306 306 309 314 319 320 320 319 315 312 310 310 313 312 319 338 340 346 355 16 121 264 270 268 264 243 221 238 245
222 228 226 225 229 232 231 232 234 236 239 240 239 239 239 241 245 248 248 249 254 257 257 254 254 254 245 233 235 235 231 231 234 236 240 247 257 263 261 265 271 278 288 285 277 278 278 276 277 277 284 295 300 305 314 315 315 318 320 327 332 334 334 335 335 329 319 313 317 315 312 328 341 341 308 281 257 264 270 273 280 256 209 227 239
223 228 231 229 229 235 236 235 236 238 240 243 244 246 246 248 249 249 250 250 253 257 258 255 255 256 246 239 241 238 231 230 232 237 243 248 254 255 252 254 261 270 279 279 274 273 268 266 269 271 280 296 312 328 329 325 334 339 338 343 347 345 342 339 341 341 326 310 317 321 303 305 274 234 229 264 261 239 269 295 300 275 212 224 237
229 230 235 236 232 234 238 237 237 238 240 243 245 247 248 249 249 249 251 252 253 255 256 256 259 258 249 245 246 239 234 235 235 238 243 248 250 249 247 251 263 271 273 270 264 259 257 257 255 253 270 323 353 358 356 348 352 353 351 354 352 350 348 340 339 343 334 314 318 316 286 271 253 244 236 255 269 254 266 287 296 294 262 235 234
231 232 235 241 240 237 238 239 237 237 240 243 245 246 247 248 248 248 250 251 252 254 255 257 260 258 249 245 241 234 236 239 240 243 244 248 251 250 250 251 257 263 261 255 247 244 241 232 222 222 263 31 23 13 8 1 1 359 356 356 353 351 350 342 340 341 338 325 321 317 297 286 264 254 253 259 267 264 262 275 285 291 297 288 281
228 230 232 240 246 243 240 241 241 240 241 244 246 247 246 247 246 246 248 249 251 253 254 257 260 256 247 239 233 229 235 239 240 242 244 250 253 253 250 243 242 245 247 247 240 230 218 205 208 215 250 346 10 6 1 359 2 0 357 355 352 351 349 345 343 339 335 330 324 317 305 304 292 274 265 259 256 252 242 254 280 297 320 308 305
227 229 231 237 246 251 247 246 244 243 245 247 248 248 247 246 244 243 244 246 249 251 253 256 257 253 242 231 226 225 231 236 238 240 243 249 251 251 246 239 240 241 238 237 227 216 209 207 215 223 252 304 331 341 345 351 354 354 355 353 349 347 346 345 343 339 333 330 327 315 296 292 292 284 271 261 257 255 237 217 257 309 306 299 298
219 225 230 233 243 255 255 253 250 246 247 248 248 247 245 244 242 241 241 242 245 248 251 252 252 248 238 227 223 225 229 231 235 239 242 244 243 240 236 233 237 234 225 221 215 211 212 215 224 236 261 299 318 322 327 333 338 342 345 346 346 343 341 341 341 339 334 330 327 313 295 283 278 280 281 275 265 258 244 216 214 265 275 283 289
218 222 230 232 237 245 250 253 254 249 247 247 247 245 244 243 241 240 238 240 243 245 246 246 245 242 235 228 225 225 227 229 232 236 237 238 235 229 225 223 224 221 216 215 215 215 217 224 234 246 267 291 304 310 315 319 324 329 332 335 339 339 336 336 337 336 333 330 326 315 302 291 280 279 283 283 276 272 265 243 238 249 254 265 276
230 231 234 235 233 225 229 244 250 248 244 244 245 245 244 244 242 238 236 236 239 241 240 237 236 235 231 227 225 224 226 227 231 233 232 230 228 222 218 217 215 215 217 219 223 225 223 229 239 251 268 283 293 300 306 310 313 317 321 325 329 332 333 332 332 333 331 328 324 317 309 300 296 290 286 285 281 281 284 268 257 261 260 263 273
237 240 238 237 232 219 217 234 243 243 239 238 242 244 244 245 243 238 235 235 236 236 233 229 228 228 226 224 223 223 224 225 227 229 227 223 222 219 216 216 216 218 222 225 230 231 228 233 244 256 269 280 288 294 299 303 308 312 315 318 321 325 328 326 326 327 326 325 322 318 314 310 310 309 301 294 287 284 285 279 276 283 287 287 292
234 238 235 236 232 219 218 228 235 239 239 235 238 243 245 246 246 239 235 235 234 231 226 222 221 221 221 220 219 220 221 222 223 223 222 219 219 219 217 218 220 223 227 230 233 233 231 236 246 257 268 277 284 290 296 301 307 312 315 318 320 321 321 321 322 322 320 321 321 319 317 315 315 315 313 311 308 302 299 297 294 294 297 301 304
241 237 235 238 233 224 222 226 231 235 238 237 235 241 246 247 249 244 237 235 232 225 220 217 216 214 214 215 214 216 218 218 218 217 217 217 217 218 218 219 222 224 228 232 234 236 237 238 246 258 266 274 281 288 296 302 307 314 318 323 326 324 322 319 318 319 320 320 320 319 316 315 315 314 315 315 310 306 305 305 301 294 294 297 299
246 238 241 242 232 229 225 225 230 233 237 238 233 237 243 245 247 245 240 237 230 222 217 214 211 209 209 210 211 213 215 214 214 214 214 215 216 218 219 221 224 226 228 233 238 244 246 243 249 261 269 275 281 289 295 299 305 311 317 325 330 331 330 325 318 316 319 319 318 318 314 311 311 308 305 302 296 294 297 298 295 292 291 292 293
240 242 249 243 231 232 228 224 228 230 233 236 233 235 241 243 244 242 239 236 227 219 215 212 209 208 207 208 212 214 214 213 211 213 215 215 216 220 222 224 227 230 231 236 243 248 253 253 257 267 275 282 287 291 294 298 303 308 314 322 328 333 335 330 322 318 319 318 315 313 309 304 302 301 300 297 291 289 291 289 287 288 290 293 295
228 244 255 249 238 233 228 223 225 228 230 234 236 236 239 242 241 238 237 235 226 217 215 211 208 208 208 209 212 215 216 214 211 212 216 217 219 222 224 226 231 236 237 243 252 258 262 267 273 279 285 290 292 293 294 298 301 303 307 314 321 329 333 329 324 320 319 318 314 309 305 300 297 296 297 295 287 280 280 279 279 284 289 292 295
222 245 251 250 247 239 230 223 223 227 228 230 234 235 236 240 239 234 233 233 227 218 215 213 211 210 211 211 214 216 217 216 214 215 218 221 224 226 229 232 238 244 247 251 262 271 276 278 282 288 292 296 297 297 296 297 298 299 300 304 308 314 321 323 321 318 317 315 311 307 303 299 295 293 290 287 278 269 270 272 275 280 286 291 297
230 248 249 245 243 238 233 230 231 236 237 233 233 232 231 234 236 232 229 228 225 218 215 214 213 213 213 213 215 217 218 219 219 221 223 226 228 230 234 241 246 252 258 262 268 278 286 287 287 289 293 296 298 300 299 298 297 296 295 297 298 302 310 314 314 315 316 312 304 300 299 295 292 290 287 280 270 267 269 270 274 280 286 292 297
238 247 245 240 238 236 233 236 242 247 248 240 233 232 230 230 233 231 228 226 223 218 215 215 216 216 216 216 217 218 220 221 225 229 228 229 233 236 240 247 254 260 267 271 275 285 294 296 292 289 289 293 297 300 301 300 298 296 294 294 294 297 305 310 312 317 319 312 301 297 296 292 290 287 283 275 264 264 268 270 275 282 288 292 294
242 234 225 230 235 235 232 233 237 241 244 241 234 232 230 227 230 230 226 225 223 220 216 215 217 217 217 218 220 221 223 225 230 233 232 232 237 242 246 254 262 269 275 279 283 290 298 301 298 292 289 289 292 297 301 302 300 298 295 294 293 296 303 309 315 321 321 312 304 303 298 293 290 284 278 273 266 265 268 272 277 281 283 285 288
231 219 222 233 234 233 229 223 222 226 236 241 238 234 230 227 228 229 227 224 222 223 220 218 219 219 219 221 222 223 227 230 233 234 235 238 243 248 252 259 267 274 280 284 287 290 294 298 299 295 291 289 290 292 297 301 302 300 297 295 294 296 302 310 316 320 320 312 306 306 301 294 289 281 274 270 268 268 270 271 274 276 278 281 287
211 218 235 235 225 225 225 221 215 218 229 239 241 236 232 229 227 228 227 223 221 224 223 221 221 220 220 223 225 227 231 234 235 235 239 245 249 251 255 261 270 278 283 288 292 291 290 292 294 294 292 291 291 291 293 297 300 299 297 296 296 296 302 310 313 315 317 313 307 305 303 295 287 278 269 265 263 264 266 269 272 275 278 282 287
209 225 230 222 217 224 230 228 222 220 226 235 242 241 236 231 227 227 227 222 221 224 225 222 222 222 223 225 228 230 233 236 238 240 244 249 253 254 257 263 272 280 284 288 293 292 289 288 290 292 293 293 295 293 292 294 297 298 298 298 297 299 304 310 311 311 313 311 307 305 301 294 287 280 270 264 264 263 262 265 269 272 277 283 291
222 230 225 220 226 236 239 234 226 224 229 234 241 244 240 235 230 227 226 223 221 224 227 225 222 222 225 228 230 232 235 237 239 243 246 250 255 258 260 266 274 279 280 283 288 291 291 289 288 289 291 293 295 294 292 293 294 296 298 299 299 300 304 308 310 311 310 307 304 302 298 292 288 283 277 275 275 274 273 272 272 276 282 287 294
223 230 226 225 236 242 242 238 230 229 234 237 242 244 242 239 234 227 225 225 222 224 228 230 227 226 227 229 229 230 234 236 237 242 246 250 256 260 264 270 276 278 278 280 285 289 290 290 288 287 287 290 291 291 290 291 292 294 296 298 298 298 300 303 306 308 305 303 300 298 296 292 287 285 283 282 280 280 280 279 279 284 290 294 296
221 226 222 224 240 245 242 245 242 239 241 242 244 245 242 241 238 230 225 225 224 224 228 231 233 233 232 230 227 226 230 234 237 240 244 249 255 260 266 272 276 277 279 280 282 285 287 287 285 283 284 285 285 285 286 287 288 291 293 295 296 295 294 297 302 303 301 301 301 297 294 291 289 287 285 281 278 277 278 279 279 282 289 295 297
234 232 228 229 238 241 242 249 247 246 251 249 247 245 241 239 238 233 226 226 227 227 228 233 236 232 229 228 225 225 229 234 237 239 242 247 252 259 266 271 274 277 278 278 279 281 281 281 280 279 279 279 279 280 282 284 287 289 290 293 294 294 294 295 299 300 298 299 301 300 294 289 288 288 286 282 279 277 278 280 280 280 287 293 297
241 240 237 234 235 237 240 245 245 251 264 259 250 244 238 235 235 233 227 225 228 228 226 233 238 229 224 226 227 228 231 234 238 240 242 247 253 261 266 269 273 276 275 274 275 276 276 275 274 273 273 274 275 276 278 282 285 287 288 290 292 294 295 296 296 298 298 296 297 299 294 285 285 289 288 285 281 279 280 281 282 284 289 293 297
244 247 239 234 236 237 236 241 244 251 272 275 257 242 234 232 233 233 228 224 227 229 225 230 237 232 228 231 231 231 234 235 238 241 244 249 256 262 266 269 271 271 269 268 269 271 273 272 270 269 270 271 273 274 276 278 281 284 286 287 290 292 294 295 295 296 297 294 294 296 292 283 284 290 290 286 283 282 281 282 284 286 287 290 294
246 249 239 236 240 235 230 239 245 246 258 274 263 242 231 229 231 232 229 224 225 231 230 228 232 234 233 232 231 233 234 234 236 240 245 249 254 259 263 265 266 266 266 265 267 269 272 271 268 267 268 270 272 274 275 276 278 280 283 285 288 290 292 293 293 293 294 293 292 293 290 283 284 292 291 285 283 282 284 286 288 288 287 289 293
248 251 244 244 245 234 232 242 242 241 249 257 262 247 232 228 230 231 229 224 224 231 234 229 228 230 231 232 233 234 235 234 236 239 243 246 249 252 257 259 262 263 264 264 267 270 271 269 268 267 268 271 273 275 276 276 276 277 280 282 285 287 289 290 290 290 290 289 289 291 288 281 281 286 283 280 280 282 286 291 292 290 289 291 295
243 245 240 239 241 238 242 245 235 233 243 245 251 249 235 230 230 229 228 225 224 229 232 231 230 229 230 233 234 235 236 237 239 241 244 245 246 250 254 257 260 262 263 265 268 269 268 266 267 268 269 271 275 276 276 276 274 274 276 280 282 284 286 287 288 287 285 284 287 289 283 277 278 282 283 284 285 285 289 294 294 293 292 295 300
233 234 234 233 237 241 245 243 233 231 239 239 244 245 236 231 228 226 226 225 224 226 228 231 232 231 231 234 235 236 238 240 241 243 244 245 247 250 254 257 260 263 265 267 268 266 264 264 266 269 270 272 275 276 275 274 272 271 272 276 279 280 282 283 284 284 283 284 285 282 274 273 278 283 287 288 283 281 290 298 298 298 299 301 304
227 229 236 237 239 241 242 241 238 238 242 246 249 247 238 231 227 225 225 223 222 224 226 228 231 231 233 236 238 239 240 241 243 244 244 246 248 252 256 259 262 265 267 268 267 267 268 268 269 270 271 273 273 274 274 273 271 270 271 274 276 276 277 279 280 280 282 284 280 272 270 275 279 282 285 284 281 287 302 305 305 305 305 304 304
231 234 238 241 245 246 246 249 247 239 243 254 257 250 241 234 229 227 226 223 221 222 225 228 230 233 236 237 238 238 239 241 242 243 245 248 251 255 258 260 263 265 268 270 272 274 275 275 273 271 271 272 271 271 272 274 274 275 276 275 275 274 275 276 277 277 280 280 273 268 272 278 282 284 284 287 295 307 313 310 308 307 305 304 305
239 242 241 244 248 246 247 253 250 241 246 255 256 252 245 236 231 229 228 224 220 220 223 227 231 235 237 237 237 237 237 239 241 243 247 250 253 255 255 257 261 265 271 280 284 284 283 280 276 273 271 271 270 271 274 276 277 278 277 275 274 273 272 273 275 277 276 271 267 272 277 280 285 288 290 297 307 312 312 309 307 305 303 304 305
244 244 244 248 248 244 246 251 250 248 253 254 252 251 246 237 232 231 230 229 225 223 225 228 233 236 235 235 235 234 235 239 242 243 245 246 247 248 249 257 266 276 290 298 297 292 289 285 281 277 275 274 274 275 277 277 276 275 274 274 273 272 272 274 274 271 265 262 267 278 283 283 288 295 302 308 311 310 309 306 304 303 305 305 304
242 238 242 247 243 238 242 247 247 250 252 248 247 251 247 238 233 231 231 232 232 232 231 231 234 236 234 232 232 233 236 239 239 238 239 240 241 244 255 274 291 301 304 302 298 294 289 285 282 281 280 279 279 278 276 274 273 273 273 274 273 272 274 273 265 257 257 265 274 282 285 285 292 302 310 311 310 309 307 304 303 305 305 304 303
237 231 236 244 242 239 242 244 244 247 246 242 245 250 246 240 236 233 232 232 234 235 234 234 235 235 232 230 230 232 233 232 231 233 235 237 240 248 267 290 301 303 300 297 294 292 286 281 280 281 281 280 279 278 277 276 274 273 273 274 272 271 270 264 254 253 262 271 277 282 286 292 302 310 312 310 308 308 305 303 304 305 305 304 304
235 233 236 241 244 244 241 240 242 245 243 242 244 246 243 238 236 234 232 230 230 230 232 234 235 232 229 229 229 229 227 226 230 235 237 239 246 257 277 294 296 294 292 291 291 288 282 279 279 279 279 279 278 279 280 277 274 272 271 271 268 265 262 256 252 258 268 275 278 282 290 301 310 311 309 306 306 305 304 304 305 305 305 305 305
229 235 238 241 244 243 240 243 249 247 242 241 242 241 238 234 231 228 226 225 225 227 230 233 231 228 227 226 224 222 223 226 232 235 238 248 260 269 281 292 294 290 287 287 288 286 282 281 280 279 278 278 277 278 276 272 268 266 264 263 262 260 259 257 258 262 269 277 283 291 300 307 310 307 304 304 305 304 305 306 307 307 308 308 307
228 235 241 243 245 244 243 246 249 245 241 239 238 236 234 229 224 221 220 221 224 225 226 225 224 224 223 219 214 215 221 228 233 237 246 261 272 277 282 288 292 290 287 287 286 283 281 280 279 279 277 276 275 273 268 264 263 260 256 258 261 264 264 265 266 270 277 287 294 301 306 306 303 300 302 304 306 308 310 310 310 311 311 310 309
236 238 242 243 242 241 241 242 242 239 236 235 235 236 233 225 219 219 220 220 221 220 218 219 219 218 214 209 207 214 226 234 238 247 259 269 273 276 282 289 290 286 284 285 284 282 282 280 279 277 275 274 273 268 263 261 260 257 258 263 269 272 272 271 274 280 289 296 301 305 304 299 297 299 304 308 310 312 314 313 312 311 310 310 310
235 234 239 242 240 236 234 233 232 232 232 232 233 232 228 222 219 219 219 217 216 215 214 214 213 209 205 204 210 221 233 241 247 257 268 273 278 285 289 290 286 280 279 280 282 282 281 279 276 274 274 272 266 261 260 259 257 258 263 269 273 276 276 277 281 287 294 301 304 304 299 295 297 302 307 310 312 314 313 312 311 310 310 310 309
233 231 234 240 238 230 225 225 226 226 227 226 221 215 215 218 219 217 215 213 212 211 210 207 204 202 203 209 219 229 238 245 254 264 269 279 294 297 292 285 280 277 276 277 279 279 277 276 274 273 274 271 262 257 258 258 256 260 264 265 269 276 280 282 286 293 300 303 301 296 294 296 301 306 309 311 312 311 311 311 311 310 310 308 308
218 211 211 213 210 203 202 207 209 210 211 210 207 206 210 214 212 207 204 203 201 201 201 199 200 204 210 218 227 234 240 247 257 267 276 289 297 292 285 282 281 279 276 276 276 276 274 272 270 268 270 270 264 257 255 255 256 259 260 263 271 278 282 286 291 297 299 296 291 291 296 301 304 306 308 308 306 306 308 310 311 311 310 309 310
194 194 194 193 192 192 194 197 197 199 201 201 197 192 188 188 188 188 189 191 192 194 198 201 206 212 218 224 230 236 245 255 266 279 288 295 295 289 285 283 279 275 273 272 272 271 269 268 267 267 269 270 265 256 248 247 252 256 261 269 277 283 287 292 294 295 292 289 291 297 301 303 304 305 307 307 306 307 310 313 315 316 316 316 315
176 182 185 185 185 188 194 195 191 186 180 174 169 167 169 173 178 181 185 188 190 195 201 206 210 213 217 223 230 243 261 275 286 292 293 293 292 288 282 272 265 265 266 267 267 268 267 267 268 270 270 267 259 251 247 247 252 260 268 276 282 288 292 294 294 294 292 293 296 300 303 305 307 309 311 310 309 309 311 315 319 320 320 320 316
169 174 185 188 184 183 184 180 171 163 158 159 162 166 171 175 178 181 185 189 194 199 204 206 209 216 229 245 256 266 281 293 297 293 289 285 283 281 271 259 257 261 263 263 264 265 264 262 262 263 262 256 250 251 253 255 259 267 273 280 288 294 297 298 300 300 300 300 302 304 307 309 310 311 309 307 305 306 310 315 317 317 319 317 311
Height
3174 3175 3176 3177 3178 3179 3180 3181 3182 3183 3184 3186 3187 3189 3190 3191 3192 3192 3193 3194 3194 3195 3196 3197 3198 3199 3199 3200 3202 3203 3204 3205 3206 3206 3207 3207 3207 3207 3208 3209 3210 3210 3211 3211 3211 3211 3211 3211 3211 3210 3210 3210 3209 3209 3209 3208 3207 3206 3206 3205 3204 3203 3202 3201 3201 3200 3199 3199 3198 3198 3199 3199 3199 3199 3199 3200 3200 3200 3199 3200 3199 3198 3198 3199 3199
3172 3173 3174 3175 3176 3177 3178 3179 3181 3182 3183 3185 3186 3187 3188 3189 3190 3191 3192 3192 3193 3194 3195 3195 3196 3197 3198 3199 3200 3201 3203 3203 3204 3204 3205 3205 3205 3206 3207 3207 3208 3209 3209 3209 3209 3209 3210 3210 3210 3209 3208 3208 3208 3208 3208 3207 3206 3206 3205 3204 3203 3202 3200 3199 3199 3198 3197 3197 3197 3197 3197 3198 3198 3198 3199 3199 3199 3199 3199 3198 3198 3197 3198 3199 3198
3169 3170 3172 3173 3174 3175 3176 3177 3179 3181 3182 3183 3184 3185 3187 3188 3189 3190 3191 3191 3192 3193 3194 3194 3195 3196 3197 3198 3199 3200 3201 3201 3202 3203 3204 3204 3204 3205 3206 3206 3206 3207 3207 3207 3208 3208 3209 3209 3208 3208 3207 3208 3207 3207 3207 3206 3206 3205 3204 3203 3202 3200 3199 3198 3198 3197 3197 3197 3196 3196 3196 3197 3197 3198 3198 3198 3199 3199 3198 3198 3197 3197 3198 3198 3197
3167 3168 3169 3171 3172 3172 3174 3176 3177 3179 3180 3181 3182 3184 3185 3186 3187 3188 3189 3190 3190 3191 3192 3193 3194 3195 3195 3196 3197 3198 3199 3200 3201 3201 3202 3203 3204 3205 3205 3205 3205 3205 3206 3206 3207 3207 3208 3207 3207 3207 3207 3207 3207 3206 3206 3205 3205 3204 3203 3202 3200 3199 3198 3198 3198 3197 3197 3196 3196 3196 3196 3196 3197 3197 3198 3198 3199 3198 3197 3197 3197 3197 3198 3198 3197
3166 3166 3166 3168 3170 3170 3172 3174 3176 3177 3178 3179 3181 3182 3184 3185 3185 3186 3187 3188 3189 3190 3191 3192 3192 3193 3194 3194 3195 3196 3197 3198 3199 3200 3201 3202 3203 3204 3204 3204 3204 3204 3204 3205 3205 3205 3206 3206 3206 3206 3206 3206 3206 3206 3205 3205 3204 3203 3202 3201 3200 3198 3197 3197 3197 3197 3196 3196 3196 3196 3196 3196 3197 3197 3197 3198 3198 3198 3197 3196 3196 3197 3197 3197 3197
3164 3164 3165 3166 3168 3169 3170 3171 3173 3174 3176 3177 3179 3180 3182 3183 3184 3184 3185 3187 3188 3188 3189 3190 3190 3191 3192 3192 3193 3195 3196 3197 3198 3199 3200 3201 3202 3203 3203 3203 3202 3202 3202 3204 3204 3204 3205 3205 3206 3206 3206 3206 3206 3205 3205 3204 3203 3202 3201 3200 3199 3198 3197 3196 3196 3196 3196 3195 3196 3196 3196 3196 3196 3196 3197 3197 3197 3198 3197 3196 3196 3196 3196 3196 3196
3161 3162 3163 3163 3165 3167 3168 3168 3170 3172 3174 3176 3177 3178 3179 3181 3182 3183 3183 3185 3186 3187 3187 3188 3189 3190 3190 3191 3192 3193 3194 3195 3196 3197 3198 3199 3200 3201 3201 3201 3201 3201 3202 3203 3204 3204 3205 3205 3205 3205 3205 3205 3205 3204 3204 3203 3202 3201 3200 3200 3199 3198 3197 3196 3196 3195 3195 3195 3195 3195 3195 3196 3196 3196 3196 3197 3197 3197 3196 3196 3196 3195 3195 3194 3195
3159 3160 3161 3161 3161 3164 3165 3166 3168 3171 3172 3173 3174 3176 3177 3178 3180 3181 3181 3182 3183 3184 3185 3186 3187 3188 3189 3189 3190 3191 3192 3193 3194 3196 3197 3197 3198 3199 3199 3200 3200 3200 3201 3202 3203 3204 3204 3204 3204 3204 3204 3204 3204 3203 3202 3202 3201 3200 3200 3199 3199 3198 3197 3196 3196 3195 3195 3194 3194 3194 3195 3195 3195 3195 3195 3195 3196 3196 3196 3196 3195 3195 3195 3194 3194
3158 3158 3158 3158 3159 3160 3163 3165 3167 3169 3170 3171 3172 3173 3175 3176 3177 3178 3179 3180 3181 3182 3183 3184 3185 3186 3187 3188 3189 3190 3190 3191 3193 3194 3195 3196 3196 3197 3198 3199 3199 3199 3200 3201 3202 3203 3203 3203 3203 3203 3203 3203 3202 3202 3201 3201 3200 3200 3199 3199 3198 3198 3197 3197 3196 3195 3194 3194 3194 3194 3194 3194 3194 3194 3194 3194 3194 3195 3196 3196 3195 3196 3195 3193 3193
3157 3157 3157 3157 3157 3158 3161 3163 3165 3167 3168 3168 3169 3171 3172 3173 3174 3176 3177 3178 3179 3180 3181 3182 3183 3184 3185 3186 3187 3188 3189 3190 3191 3193 3194 3194 3195 3196 3196 3197 3198 3198 3200 3201 3201 3202 3202 3202 3202 3202 3202 3202 3201 3201 3201 3200 3200 3199 3199 3198 3197 3197 3196 3196 3195 3195 3194 3194 3193 3193 3193 3193 3193 3193 3193 3193 3193 3193 3194 3195 3195 3195 3193 3192 3192
3153 3154 3155 3156 3155 3156 3158 3159 3161 3163 3165 3166 3166 3168 3169 3170 3171 3173 3175 3176 3176 3177 3178 3180 3181 3182 3183 3184 3185 3187 3187 3188 3190 3191 3192 3193 3194 3194 3195 3196 3197 3198 3199 3200 3200 3200 3201 3201 3201 3201 3201 3201 3201 3200 3200 3199 3199 3199 3198 3197 3197 3196 3196 3195 3195 3194 3193 3193 3193 3192 3192 3192 3192 3192 3191 3191 3191 3191 3192 3193 3193 3193 3192 3192 3191
3149 3151 3152 3153 3153 3153 3155 3155 3156 3159 3162 3162 3163 3164 3166 3167 3168 3170 3172 3173 3174 3175 3176 3178 3179 3180 3181 3182 3184 3185 3186 3187 3188 3190 3191 3192 3192 3193 3194 3195 3196 3197 3198 3199 3199 3199 3200 3200 3200 3200 3200 3200 3200 3200 3199 3199 3198 3198 3198 3197 3196 3195 3195 3194 3194 3193 3192 3192 3192 3192 3191 3190 3190 3191 3190 3190 3190 3190 3190 3191 3191 3191 3191 3191 3190
3146 3147 3149 3150 3150 3151 3151 3151 3152 3155 3158 3160 3160 3161 3163 3164 3165 3167 3169 3170 3171 3172 3174 3175 3177 3178 3179 3181 3182 3183 3184 3185 3187 3188 3189 3190 3191 3192 3193 3194 3194 3196 3197 3197 3198 3198 3199 3199 3199 3200 3200 3200 3199 3199 3198 3198 3197 3197 3196 3196 3196 3195 3194 3193 3193 3192 3192 3191 3191 3190 3190 3189 3189 3189 3189 3189 3189 3189 3189 3189 3189 3188 3189 3189 3189
3143 3144 3145 3146 3147 3148 3148 3149 3150 3151 3154 3157 3158 3159 3160 3161 3162 3164 3166 3168 3169 3170 3172 3173 3175 3176 3178 3179 3180 3181 3182 3184 3185 3186 3187 3188 3189 3190 3191 3192 3193 3194 3195 3196 3196 3197 3198 3198 3198 3198 3198 3198 3198 3198 3197 3197 3196 3195 3195 3195 3195 3194 3193 3193 3192 3192 3191 3190 3190 3189 3189 3188 3188 3188 3187 3187 3187 3187 3187 3187 3187 3187 3187 3187 3187
3140 3142 3143 3143 3145 3146 3146 3147 3147 3148 3151 3154 3156 3157 3158 3159 3160 3162 3164 3165 3166 3168 3170 3172 3173 3175 3176 3178 3179 3180 3181 3182 3184 3185 3186 3187 3188 3189 3190 3191 3192 3193 3194 3194 3195 3195 3196 3197 3197 3197 3197 3196 3197 3196 3196 3195 3195 3194 3194 3194 3194 3193 3193 3192 3191 3191 3190 3189 3189 3188 3188 3187 3187 3187 3186 3186 3186 3185 3185 3185 3186 3186 3186 3186 3185
3137 3138 3139 3140 3142 3143 3143 3144 3146 3146 3147 3150 3153 3154 3155 3157 3159 3160 3162 3163 3164 3166 3168 3170 3172 3173 3175 3176 3177 3178 3179 3181 3182 3183 3184 3185 3187 3187 3188 3189 3190 3191 3192 3193 3194 3194 3194 3195 3196 3195 3195 3195 3195 3195 3194 3194 3194 3193 3193 3193 3193 3192 3192 3191 3191 3190 3189 3188 3188 3187 3187 3186 3185 3185 3185 3185 3185 3185 3184 3184 3184 3184 3184 3184 3184
3133 3134 3136 3137 3138 3139 3140 3142 3143 3144 3144 3146 3150 3152 3153 3155 3157 3158 3160 3161 3162 3164 3166 3168 3170 3171 3173 3174 3176 3177 3178 3179 3180 3182 3183 3184 3185 3186 3187 3188 3189 3190 3191 3192 3192 3192 3193 3194 3194 3194 3193 3193 3193 3192 3192 3192 3192 3192 3192 3191 3191 3191 3190 3190 3190 3189 3189 3188 3187 3186 3186 3185 3184 3184 3184 3184 3183 3183 3183 3182 3182 3182 3182 3182 3182
3130 3131 3132 3134 3136 3137 3138 3139 3140 3141 3141 3144 3147 3150 3152 3154 3155 3157 3158 3159 3160 3162 3164 3166 3168 3170 3171 3173 3174 3175 3176 3177 3179 3180 3181 3182 3183 3184 3185 3186 3187 3188 3189 3190 3190 3191 3191 3191 3191 3192 3192 3192 3191 3190 3190 3190 3190 3190 3190 3190 3190 3189 3189 3189 3189 3188 3188 3187 3186 3185 3184 3183 3183 3182 3182 3181 3181 3181 3181 3181 3180 3180 3180 3180 3179
3125 3128 3130 3132 3133 3134 3135 3136 3137 3138 3139 3141 3145 3148 3150 3152 3153 3155 3156 3157 3158 3160 3162 3164 3166 3168 3169 3171 3172 3173 3174 3176 3177 3178 3179 3180 3181 3182 3183 3184 3185 3186 3187 3188 3188 3189 3190 3190 3189 3190 3190 3189 3189 3188 3188 3188 3188 3188 3188 3188 3188 3187 3187 3187 3187 3186 3186 3185 3184 3183 3182 3181 3181 3180 3180 3179 3179 3179 3179 3179 3179 3178 3178 3178 3178
3121 3125 3128 3130 3131 3131 3132 3134 3135 3136 3137 3139 3142 3145 3147 3149 3150 3152 3154 3155 3156 3158 3160 3162 3163 3165 3167 3168 3170 3171 3172 3174 3175 3176 3177 3178 3179 3180 3181 3182 3183 3184 3185 3186 3187 3187 3188 3188 3188 3188 3187 3187 3187 3187 3187 3186 3186 3186 3186 3186 3186 3186 3185 3185 3184 3184 3183 3182 3182 3181 3181 3180 3179 3178 3178 3177 3178 3178 3177 3178 3177 3177 3177 3177 3177
3119 3123 3125 3126 3128 3128 3130 3131 3132 3134 3135 3136 3139 3141 3144 3146 3148 3149 3151 3152 3154 3155 3157 3159 3161 3163 3164 3166 3167 3169 3170 3172 3173 3174 3175 3176 3177 3179 3180 3180 3181 3182 3183 3184 3185 3185 3186 3186 3186 3186 3185 3184 3185 3185 3185 3185 3184 3183 3183 3183 3183 3183 3183 3183 3182 3181 3180 3180 3179 3179 3178 3178 3178 3177 3176 3176 3176 3176 3176 3176 3176 3176 3175 3175 3175
3116 3119 3121 3123 3125 3126 3128 3129 3130 3130 3130 3132 3135 3138 3140 3143 3145 3147 3148 3150 3151 3153 3155 3156 3158 3160 3162 3164 3165 3166 3168 3169 3170 3171 3172 3174 3175 3177 3178 3179 3179 3180 3181 3182 3183 3183 3183 3184 3184 3183 3182 3182 3182 3183 3182 3182 3182 3181 3181 3180 3180 3180 3180 3180 3180 3179 3178 3178 3177 3177 3176 3176 3176 3175 3174 3174 3174 3174 3174 3174 3174 3174 3174 3173 3172
3112 3115 3117 3120 3122 3123 3125 3128 3128 3127 3127 3128 3131 3134 3137 3139 3142 3144 3145 3147 3149 3151 3152 3154 3155 3157 3159 3161 3163 3164 3165 3167 3168 3168 3170 3172 3174 3175 3176 3177 3178 3179 3180 3180 3181 3181 3181 3181 3181 3180 3179 3179 3179 3179 3179 3179 3179 3179 3178 3178 3178 3178 3177 3177 3176 3176 3175 3175 3175 3175 3174 3174 3174 3173 3173 3172 3172 3172 3172 3173 3172 3172 3171 3171 3170
3109 3111 3115 3118 3120 3121 3123 3126 3126 3123 3123 3124 3127 3130 3134 3136 3138 3140 3142 3145 3147 3148 3149 3151 3153 3155 3157 3159 3160 3162 3163 3163 3165 3166 3168 3170 3171 3172 3173 3174 3176 3177 3178 3178 3178 3179 3178 3178 3178 3177 3177 3176 3176 3176 3176 3176 3176 3176 3176 3175 3175 3175 3175 3175 3175 3174 3173 3173 3173 3173 3172 3172 3172 3171 3171 3170 3170 3170 3170 3170 3170 3170 3169 3169 3169
3106 3110 3114 3115 3117 3119 3121 3122 3122 3120 3119 3122 3124 3127 3130 3133 3135 3137 3140 3142 3145 3146 3146 3148 3150 3152 3154 3156 3157 3159 3160 3160 3162 3164 3166 3168 3169 3170 3171 3172 3173 3175 3175 3176 3176 3176 3176 3175 3175 3175 3174 3174 3174 3174 3173 3173 3173 3173 3172 3172 3172 3172 3173 3173 3172 3172 3171 3171 3171 3170 3170 3170 3169 3169 3169 3168 3168 3168 3168 3168 3168 3167 3167 3167 3167
3103 3107 3111 3112 3114 3115 3117 3118 3118 3116 3117 3120 3122 3124 3127 3129 3132 3135 3137 3139 3142 3143 3143 3145 3147 3149 3151 3152 3154 3155 3156 3158 3160 3162 3164 3165 3166 3167 3169 3170 3171 3172 3173 3173 3173 3173 3173 3172 3172 3172 3171 3171 3171 3171 3170 3170 3170 3170 3170 3169 3169 3169 3169 3169 3169 3169 3168 3168 3168 3168 3167 3167 3167 3167 3167 3167 3166 3166 3166 3166 3166 3165 3165 3165 3165
3101 3103 3106 3109 3110 3112 3113 3114 3114 3114 3116 3118 3120 3121 3124 3126 3128 3131 3134 3136 3139 3140 3140 3142 3145 3146 3148 3149 3151 3152 3153 3155 3157 3159 3161 3163 3164 3164 3166 3167 3168 3169 3169 3170 3170 3170 3170 3170 3170 3169 3168 3168 3168 3167 3167 3167 3167 3167 3167 3167 3166 3166 3166 3167 3167 3166 3166 3165 3165 3165 3164 3164 3164 3164 3165 3165 3165 3164 3164 3164 3164 3164 3163 3162 3162
3100 3101 3103 3106 3107 3108 3110 3111 3111 3113 3114 3116 3117 3119 3121 3123 3125 3128 3130 3132 3135 3137 3138 3139 3142 3143 3144 3146 3148 3150 3151 3153 3155 3157 3158 3160 3161 3162 3163 3165 3166 3166 3166 3167 3167 3167 3167 3167 3166 3166 3165 3165 3164 3164 3164 3164 3164 3164 3164 3164 3164 3163 3163 3164 3164 3164 3163 3163 3162 3162 3162 3161 3161 3161 3162 3162 3161 3161 3161 3161 3161 3161 3160 3159 3159
3097 3099 3101 3103 3105 3106 3107 3107 3109 3110 3112 3113 3114 3115 3118 3120 3122 3125 3127 3129 3131 3134 3135 3137 3139 3140 3142 3143 3145 3147 3149 3150 3152 3154 3156 3157 3158 3159 3160 3162 3163 3164 3164 3164 3164 3164 3164 3164 3163 3163 3162 3162 3161 3161 3161 3161 3161 3161 3161 3160 3160 3160 3160 3160 3160 3160 3160 3160 3159 3159 3159 3158 3158 3158 3158 3158 3158 3158 3158 3158 3157 3157 3157 3156 3155
3093 3096 3098 3100 3102 3103 3104 3105 3106 3107 3109 3110 3111 3112 3114 3117 3119 3122 3124 3126 3128 3131 3133 3134 3135 3138 3139 3141 3143 3144 3146 3147 3149 3151 3153 3154 3156 3157 3158 3158 3160 3161 3161 3161 3160 3160 3161 3161 3161 3160 3159 3158 3158 3158 3158 3158 3158 3158 3157 3156 3156 3156 3156 3156 3156 3156 3157 3156 3156 3155 3155 3155 3155 3155 3154 3154 3154 3154 3154 3154 3154 3154 3153 3152 3151
3090 3093 3095 3097 3099 3100 3102 3103 3104 3105 3106 3107 3108 3109 3111 3114 3116 3119 3121 3123 3125 3128 3130 3131 3132 3134 3137 3138 3140 3141 3143 3144 3146 3148 3150 3152 3153 3154 3155 3155 3157 3158 3158 3158 3157 3157 3158 3158 3158 3157 3156 3155 3154 3155 3155 3155 3155 3154 3153 3152 3152 3152 3152 3153 3152 3152 3153 3153 3152 3152 3151 3151 3151 3151 3151 3151 3150 3150 3150 3150 3150 3149 3149 3148 3147
3088 3090 3092 3093 3095 3097 3099 3101 3101 3102 3103 3104 3105 3106 3108 3111 3113 3115 3118 3120 3122 3124 3127 3129 3130 3131 3133 3135 3136 3138 3139 3141 3143 3146 3148 3150 3151 3151 3152 3152 3153 3154 3154 3155 3154 3154 3154 3154 3154 3153 3152 3152 3151 3151 3152 3152 3151 3151 3149 3149 3149 3148 3148 3148 3148 3148 3149 3149 3148 3148 3147 3147 3148 3148 3148 3148 3148 3147 3147 3147 3146 3145 3144 3144 3143
3087 3088 3089 3090 3092 3094 3096 3097 3099 3100 3101 3102 3103 3104 3105 3108 3111 3113 3115 3117 3119 3120 3122 3125 3127 3128 3129 3131 3133 3134 3136 3139 3141 3144 3145 3147 3148 3148 3148 3149 3150 3150 3151 3151 3151 3151 3151 3150 3150 3150 3149 3148 3147 3148 3148 3148 3148 3147 3146 3145 3145 3145 3144 3144 3143 3144 3145 3145 3144 3144 3143 3143 3145 3145 3145 3144 3144 3144 3144 3143 3142 3141 3141 3140 3139
3085 3085 3085 3086 3088 3090 3092 3094 3096 3097 3099 3100 3101 3101 3103 3106 3109 3111 3113 3115 3116 3117 3119 3120 3122 3124 3126 3127 3128 3130 3133 3136 3139 3140 3142 3143 3144 3144 3145 3146 3146 3147 3147 3148 3148 3148 3148 3148 3147 3146 3146 3145 3144 3144 3144 3144 3144 3143 3142 3141 3141 3141 3140 3139 3139 3140 3141 3140 3140 3140 3139 3139 3140 3141 3141 3141 3141 3140 3139 3139 3138 3138 3138 3137 3135
3082 3082 3082 3084 3085 3086 3088 3091 3093 3095 3096 3097 3099 3100 3101 3103 3106 3108 3109 3111 3113 3115 3116 3117 3118 3120 3121 3122 3124 3128 3131 3134 3135 3137 3139 3140 3140 3141 3142 3143 3143 3143 3144 3145 3145 3145 3146 3145 3144 3143 3142 3141 3140 3139 3140 3140 3139 3138 3138 3137 3138 3137 3136 3136 3136 3136 3136 3136 3136 3136 3135 3135 3136 3137 3138 3138 3137 3136 3134 3134 3135 3135 3134 3132 3131
3078 3079 3079 3081 3082 3083 3085 3088 3090 3091 3092 3094 3096 3098 3099 3100 3103 3105 3106 3109 3110 3112 3113 3114 3115 3116 3117 3119 3122 3126 3128 3131 3133 3134 3135 3136 3137 3138 3139 3140 3140 3141 3142 3142 3143 3142 3143 3142 3141 3140 3139 3138 3136 3134 3134 3134 3134 3134 3134 3134 3134 3133 3132 3133 3133 3133 3132 3132 3132 3131 3132 3132 3133 3134 3134 3135 3134 3131 3130 3131 3131 3130 3129 3127 3126
3075 3076 3077 3077 3078 3080 3081 3083 3086 3088 3089 3091 3093 3094 3095 3097 3099 3101 3103 3105 3107 3108 3109 3110 3111 3112 3114 3117 3120 3122 3125 3128 3129 3131 3132 3133 3134 3135 3136 3137 3138 3138 3139 3139 3139 3139 3139 3138 3137 3136 3135 3134 3131 3130 3129 3130 3130 3130 3131 3131 3130 3129 3129 3129 3130 3129 3129 3129 3129 3129 3129 3130 3130 3130 3131 3131 3130 3127 3127 3127 3127 3125 3124 3122 3121
3070 3072 3073 3073 3073 3075 3076 3079 3082 3083 3084 3087 3089 3090 3091 3093 3094 3097 3099 3101 3103 3104 3105 3106 3108 3110 3112 3114 3117 3119 3122 3124 3125 3127 3129 3130 3131 3133 3133 3134 3135 3135 3135 3135 3135 3135 3134 3133 3132 3131 3130 3129 3128 3126 3126 3127 3127 3127 3127 3126 3126 3125 3125 3126 3126 3126 3126 3126 3126 3127 3127 3127 3127 3128 3128 3128 3127 3125 3125 3124 3123 3121 3119 3118 3116
3063 3066 3068 3068 3067 3069 3070 3073 3076 3078 3080 3082 3084 3085 3086 3088 3089 3092 3095 3097 3099 3100 3102 3103 3105 3108 3110 3111 3114 3117 3119 3121 3123 3125 3126 3127 3129 3130 3131 3132 3132 3132 3132 3131 3131 3130 3128 3127 3127 3126 3126 3126 3126 3124 3124 3124 3124 3123 3123 3122 3122 3122 3122 3122 3123 3123 3123 3124 3124 3124 3125 3125 3125 3126 3125 3124 3123 3123 3122 3121 3119 3117 3115 3113 3111
3058 3062 3064 3062 3061 3063 3065 3067 3070 3073 3075 3077 3079 3080 3082 3082 3084 3087 3090 3093 3095 3097 3100 3101 3102 3104 3107 3109 3112 3115 3117 3119 3121 3122 3123 3124 3126 3127 3128 3129 3129 3129 3129 3128 3127 3125 3123 3122 3122 3122 3123 3123 3122 3121 3121 3120 3120 3120 3119 3119 3119 3119 3119 3119 3120 3120 3120 3121 3121 3122 3123 3123 3123 3122 3121 3120 3120 3120 3119 3117 3115 3113 3111 3109 3107
3053 3057 3058 3055 3054 3057 3059 3061 3065 3068 3071 3072 3073 3075 3077 3077 3079 3082 3086 3089 3091 3093 3096 3096 3098 3101 3105 3108 3110 3112 3114 3116 3118 3119 3121 3122 3123 3123 3124 3124 3124 3126 3127 3125 3122 3120 3119 3119 3119 3119 3119 3119 3118 3117 3117 3117 3116 3116 3116 3116 3116 3116 3116 3116 3117 3118 3118 3118 3118 3120 3121 3121 3120 3118 3118 3117 3117 3116 3115 3113 3111 3109 3107 3105 3103
3048 3052 3052 3049 3049 3052 3054 3056 3059 3063 3065 3067 3069 3071 3072 3073 3075 3078 3081 3084 3086 3088 3090 3092 3095 3099 3102 3105 3106 3108 3110 3113 3115 3117 3118 3119 3118 3119 3119 3119 3120 3122 3122 3120 3118 3117 3116 3116 3116 3116 3115 3115 3114 3114 3113 3113 3113 3114 3114 3113 3113 3114 3114 3114 3115 3115 3115 3115 3116 3117 3118 3118 3116 3115 3115 3115 3114 3113 3112 3110 3107 3105 3103 3101 3099
3042 3045 3045 3044 3045 3047 3049 3052 3054 3057 3060 3062 3064 3066 3067 3068 3070 3073 3076 3078 3081 3083 3086 3089 3093 3096 3099 3100 3102 3105 3107 3110 3111 3112 3114 3114 3115 3115 3115 3116 3117 3118 3117 3116 3114 3114 3113 3112 3112 3112 3112 3111 3111 3111 3111 3111 3111 3111 3111 3111 3111 3112 3112 3112 3112 3112 3113 3113 3113 3114 3114 3113 3112 3113 3112 3112 3111 3110 3108 3106 3103 3101 3099 3097 3095
3039 3039 3040 3040 3041 3043 3045 3047 3050 3053 3055 3058 3060 3061 3063 3064 3066 3068 3070 3074 3076 3079 3083 3087 3090 3092 3094 3096 3099 3102 3104 3107 3108 3109 3110 3111 3111 3111 3112 3112 3113 3113 3112 3112 3111 3110 3109 3109 3108 3108 3108 3108 3108 3108 3108 3108 3109 3109 3109 3109 3109 3110 3110 3110 3110 3110 3111 3111 3111 3111 3110 3110 3109 3109 3109 3108 3107 3105 3103 3101 3099 3096 3094 3093 3091
3036 3035 3035 3036 3037 3039 3041 3043 3046 3048 3050 3053 3055 3057 3059 3060 3062 3064 3066 3069 3073 3076 3080 3083 3085 3087 3090 3093 3096 3099 3101 3104 3106 3106 3106 3106 3106 3107 3108 3108 3108 3108 3108 3108 3107 3106 3106 3105 3104 3104 3105 3105 3105 3105 3106 3106 3107 3107 3107 3108 3108 3108 3108 3108 3108 3108 3109 3109 3108 3108 3107 3107 3106 3106 3105 3103 3102 3100 3098 3096 3095 3093 3091 3089 3087
3031 3030 3031 3032 3033 3034 3036 3039 3041 3043 3046 3048 3051 3053 3054 3056 3058 3060 3062 3066 3070 3073 3076 3079 3082 3085 3088 3091 3093 3096 3099 3101 3102 3102 3102 3102 3102 3103 3104 3104 3104 3104 3104 3103 3103 3102 3102 3101 3101 3101 3102 3102 3103 3103 3104 3105 3105 3105 3106 3106 3106 3106 3106 3106 3106 3106 3106 3106 3105 3105 3104 3104 3103 3102 3101 3099 3098 3096 3095 3093 3091 3089 3087 3085 3083
3027 3027 3029 3029 3029 3031 3033 3035 3037 3039 3042 3045 3048 3049 3051 3052 3055 3057 3060 3064 3068 3071 3074 3077 3080 3083 3085 3088 3091 3093 3096 3098 3099 3099 3098 3098 3099 3100 3101 3101 3100 3100 3100 3100 3099 3099 3098 3098 3098 3098 3099 3100 3101 3101 3102 3103 3103 3104 3104 3104 3104 3104 3104 3104 3103 3103 3103 3103 3102 3102 3101 3101 3100 3098 3097 3095 3094 3093 3091 3089 3087 3086 3084 3082 3080
3024 3025 3026 3026 3026 3028 3030 3031 3034 3037 3040 3042 3044 3047 3049 3051 3054 3057 3060 3063 3066 3069 3072 3075 3078 3080 3083 3086 3088 3090 3092 3094 3095 3095 3095 3095 3095 3096 3096 3096 3096 3096 3097 3097 3096 3096 3096 3096 3096 3096 3096 3098 3099 3100 3100 3101 3101 3101 3102 3102 3102 3102 3102 3101 3101 3101 3101 3100 3100 3099 3099 3098 3096 3095 3094 3092 3091 3089 3088 3086 3084 3082 3081 3079 3077
3021 3021 3023 3024 3025 3026 3028 3030 3034 3036 3037 3039 3042 3045 3048 3051 3054 3057 3059 3062 3064 3067 3070 3073 3075 3078 3081 3083 3084 3086 3089 3091 3092 3091 3091 3091 3091 3091 3092 3092 3092 3093 3093 3094 3093 3093 3093 3094 3094 3094 3094 3096 3097 3098 3099 3099 3099 3100 3100 3100 3100 3100 3100 3099 3099 3099 3099 3098 3097 3096 3096 3095 3093 3092 3090 3088 3086 3085 3084 3082 3080 3078 3077 3075 3073
3016 3017 3019 3022 3024 3026 3028 3030 3032 3034 3036 3039 3042 3045 3048 3051 3054 3056 3059 3061 3063 3066 3068 3070 3073 3076 3078 3080 3082 3084 3086 3089 3089 3088 3087 3087 3087 3088 3088 3089 3089 3090 3091 3091 3091 3091 3092 3092 3092 3093 3093 3094 3095 3096 3097 3097 3097 3098 3098 3098 3098 3098 3098 3097 3097 3096 3096 3096 3095 3094 3093 3091 3090 3088 3086 3084 3082 3080 3079 3078 3076 3074 3072 3070 3069
3013 3015 3018 3021 3023 3025 3027 3029 3032 3035 3038 3041 3043 3046 3048 3051 3054 3056 3058 3060 3061 3064 3066 3068 3071 3073 3074 3076 3078 3079 3082 3086 3087 3085 3085 3084 3084 3084 3085 3086 3087 3087 3088 3088 3088 3089 3090 3091 3091 3091 3092 3093 3093 3094 3094 3095 3095 3096 3096 3096 3096 3096 3096 3095 3094 3093 3093 3092 3091 3090 3089 3087 3086 3085 3083 3081 3080 3078 3077 3075 3073 3071 3070 3068 3065